KB5DPX Weather Reports


time (UTC)temp
F
wind
direction
speed
knots
gust
knots
rain 1hr
in
rain 24hr
in
rain mn
in
humidity
%
barometer
mb
20260507232240 45 271 6.1 11.3 0.00 0.00 0.00 56 1010.8
20260507231728 45 275 7.8 11.3 0.00 0.00 0.00 57 1010.8
20260507231243 45 275 8.7 11.3 0.00 0.00 0.00 58 1010.9
20260507230745 45 284 5.2 9.6 0.00 0.00 0.00 58 1010.8
20260507230233 45 279 7.0 9.6 0.00 0.00 0.00 58 1010.9
20260507225731 45 265 6.1 9.6 0.00 0.00 0.00 58 1010.8
20260507225237 45 277 5.2 10.4 0.00 0.00 0.00 58 1010.9
20260507224725 45 277 7.0 11.3 0.00 0.00 0.00 57 1011.0
20260507224240 45 288 7.0 10.4 0.00 0.00 0.00 58 1011.0
20260507223728 45 286 5.2 9.6 0.00 0.00 0.00 57 1011.0
20260507223244 45 294 6.1 11.3 0.00 0.00 0.00 57 1011.0
20260507222739 45 293 7.0 11.3 0.00 0.00 0.00 57 1011.0
20260507222245 45 288 7.0 10.4 0.00 0.00 0.00 58 1011.1
20260507221733 45 271 7.0 10.4 0.00 0.00 0.00 58 1011.1
20260507221239 45 282 7.8 12.2 0.00 0.00 0.00 58 1011.1
20260507220727 45 294 7.8 12.2 0.00 0.00 0.00 59 1011.1
20260507220247 45 291 5.2 10.4 0.00 0.00 0.00 59 1011.0
20260507215746 45 283 7.8 11.3 0.00 0.00 0.00 59 1011.1
20260507215234 45 290 7.0 12.2 0.00 0.00 0.00 60 1011.1
20260507214736 45 294 8.7 13.0 0.00 0.00 0.00 60 1011.1
20260507214242 45 276 8.7 13.0 0.00 0.00 0.00 61 1011.1
20260507213728 45 282 9.6 13.0 0.00 0.00 0.00 60 1011.1
20260507213238 45 274 8.7 13.0 0.00 0.00 0.00 59 1011.1
20260507212736 45 289 7.0 12.2 0.00 0.00 0.00 60 1011.1
20260507212223 45 269 7.0 12.2 0.00 0.00 0.00 61 1011.1
20260507211720 45 304 7.0 11.3 0.00 0.00 0.00 58 1011.1
20260507211236 45 282 7.0 14.8 0.00 0.00 0.00 56 1011.1
20260507210741 46 273 8.7 14.8 0.00 0.00 0.00 57 1011.0
20260507210229 45 294 9.6 13.9 0.00 0.00 0.00 58 1011.1
20260507205730 45 275 10.4 13.9 0.00 0.00 0.00 56 1011.1
20260507205220 45 259 9.6 14.8 0.00 0.00 0.00 57 1011.1
20260507204736 46 279 9.6 14.8 0.00 0.00 0.00 57 1011.1
20260507204224 45 285 7.8 13.0 0.00 0.00 0.00 60 1011.1
20260507203720 45 284 8.7 12.2 0.00 0.00 0.00 62 1011.1
20260507203237 45 291 7.0 13.0 0.00 0.00 0.00 61 1011.1
20260507202733 45 262 7.8 14.8 0.00 0.00 0.00 62 1011.1
20260507202243 45 271 9.6 14.8 0.00 0.00 0.00 63 1011.1
20260507201732 45 288 7.0 13.9 0.00 0.00 0.00 62 1011.1
20260507201240 45 290 7.8 15.6 0.00 0.00 0.00 63 1011.1
20260507200729 45 292 8.7 15.6 0.00 0.00 0.00 64 1011.1
20260507200245 45 285 7.8 13.9 0.00 0.00 0.00 63 1011.1
20260507195744 45 298 9.6 13.9 0.00 0.00 0.00 64 1011.1
20260507195232 45 311 8.7 13.0 0.00 0.00 0.00 64 1011.1
20260507194722 46 292 7.8 12.2 0.00 0.00 0.00 61 1011.1
20260507194234 47 301 7.0 10.4 0.00 0.00 0.00 58 1011.2
20260507193721 48 280 7.0 12.2 0.00 0.00 0.00 53 1011.2
20260507193244 48 269 7.0 13.0 0.00 0.00 0.00 53 1011.2
20260507192723 47 268 6.1 12.2 0.00 0.00 0.00 51 1011.3
20260507192218 47 263 7.0 15.6 0.00 0.00 0.00 52 1011.3
20260507191735 47 252 11.3 15.6 0.00 0.00 0.00 52 1011.4
20260507191223 46 257 7.8 15.6 0.00 0.00 0.00 53 1011.4
20260507190738 46 250 8.7 15.6 0.00 0.00 0.00 54 1011.5
20260507190240 46 263 7.0 13.9 0.00 0.00 0.00 58 1011.5
20260507185718 45 277 6.1 12.2 0.00 0.00 0.00 64 1011.6
20260507185235 45 300 7.8 12.2 0.00 0.00 0.00 64 1011.5
20260507184722 45 288 7.8 13.0 0.00 0.00 0.00 64 1011.6
20260507184239 45 283 8.7 16.5 0.00 0.00 0.00 65 1011.6
20260507183727 44 282 9.6 16.5 0.00 0.00 0.00 67 1011.6
20260507183244 44 279 9.6 13.9 0.00 0.00 0.00 69 1011.7
20260507182723 44 286 9.6 14.8 0.00 0.00 0.00 70 1011.7
20260507182238 44 279 10.4 14.8 0.00 0.00 0.00 70 1011.8
20260507181742 44 298 8.7 14.8 0.00 0.00 0.00 70 1011.8
20260507181231 44 288 8.7 14.8 0.00 0.00 0.00 70 1011.8
20260507180737 44 267 9.6 14.8 0.00 0.00 0.00 70 1011.9
20260507180245 44 288 9.6 14.8 0.00 0.00 0.00 68 1011.9
20260507175723 44 294 9.6 14.8 0.00 0.00 0.00 67 1011.9
20260507175238 44 306 8.7 13.9 0.00 0.00 0.00 66 1012.0
20260507174726 44 291 6.1 10.4 0.00 0.00 0.00 64 1012.0
20260507174241 44 271 6.1 10.4 0.00 0.00 0.00 62 1012.0
20260507173744 45 303 6.1 12.2 0.00 0.00 0.00 62 1012.1
20260507173231 45 289 7.0 13.0 0.00 0.00 0.00 63 1012.1
20260507172729 44 302 7.8 13.0 0.00 0.00 0.00 64 1012.2
20260507172236 44 303 7.0 11.3 0.00 0.00 0.00 63 1012.3
20260507171724 44 310 7.8 11.3 0.00 0.00 0.00 63 1012.2
20260507171240 44 286 7.8 11.3 0.00 0.00 0.00 63 1012.3
20260507170726 44 271 7.8 13.9 0.00 0.00 0.00 63 1012.4
20260507170242 44 289 8.7 13.9 0.00 0.00 0.00 61 1012.4
20260507165737 44 296 7.8 13.0 0.00 0.00 0.00 62 1012.5
20260507165245 44 277 7.8 13.0 0.00 0.00 0.00 63 1012.6
20260507164734 44 299 9.6 13.0 0.00 0.00 0.00 64 1012.7
20260507164221 44 289 9.6 13.0 0.00 0.00 0.00 64 1012.7
20260507163736 44 290 7.8 13.9 0.00 0.00 0.00 65 1012.7
20260507163222 44 298 8.7 13.9 0.00 0.00 0.00 66 1012.7
20260507162728 44 290 10.4 13.9 0.00 0.00 0.00 67 1012.7
20260507162243 44 280 8.7 15.6 0.00 0.00 0.00 68 1012.7
20260507161745 44 271 8.7 15.6 0.00 0.00 0.00 68 1012.8
20260507161232 44 284 9.6 13.9 0.00 0.00 0.00 67 1012.8
20260507160740 44 292 9.6 13.0 0.00 0.00 0.00 68 1012.8
20260507160246 43 279 9.6 13.9 0.00 0.00 0.00 69 1012.9
20260507155723 43 303 7.8 13.9 0.00 0.00 0.00 69 1012.8
20260507155220 43 284 7.8 11.3 0.00 0.00 0.00 69 1012.9
20260507154736 44 298 6.1 10.4 0.00 0.00 0.00 69 1012.9
20260507154222 44 298 7.0 10.4 0.00 0.00 0.00 73 1012.9
20260507153733 43 292 5.2 10.4 0.00 0.00 0.00 72 1013.0
20260507153238 43 311 3.5 8.7 0.00 0.00 0.00 74 1013.0
20260507152738 43 309 5.2 7.8 0.00 0.00 0.00 76 1013.0
20260507152226 43 303 1.7 7.8 0.00 0.00 0.00 77 1012.9
20260507151746 43 296 0.0 0.0 0.00 0.00 0.00 76 1013.0
20260507151233 42 286 0.0 0.0 0.00 0.00 0.00 77 1013.0
20260507150721 42 294 0.0 0.0 0.00 0.00 0.00 79 1013.0
20260507150218 42 290 0.0 0.0 0.00 0.00 0.00 78 1013.0
20260507145741 42 258 0.0 0.0 0.00 0.00 0.00 77 1013.0
20260507145230 43 256 0.0 7.0 0.00 0.00 0.00 75 1013.1
20260507144737 42 256 0.9 9.6 0.00 0.00 0.00 76 1013.0
20260507144241 42 257 6.1 9.6 0.00 0.00 0.00 77 1013.0
20260507143729 41 246 3.5 7.8 0.00 0.00 0.00 77 1013.1
20260507143246 41 254 0.0 7.0 0.00 0.00 0.00 78 1013.1
20260507142745 41 254 0.9 7.0 0.00 0.00 0.00 77 1013.1
20260507142233 41 263 0.0 2.6 0.00 0.00 0.00 78 1013.0
20260507141738 41 263 0.0 0.0 0.00 0.00 0.00 77 1013.1
20260507141246 41 267 0.0 0.0 0.00 0.00 0.00 79 1013.1
20260507140733 41 268 0.0 0.0 0.00 0.00 0.00 79 1013.0
20260507140241 41 268 0.0 0.0 0.00 0.00 0.00 78 1013.0
20260507135721 41 268 0.0 0.0 0.00 0.00 0.00 79 1013.0
20260507135239 40 269 0.0 0.0 0.00 0.00 0.00 80 1013.1
20260507134726 40 269 0.0 0.0 0.00 0.00 0.00 81 1013.0
20260507134238 40 269 0.0 0.0 0.00 0.00 0.00 80 1013.0
20260507133738 40 275 0.0 0.0 0.00 0.00 0.00 82 1013.0
20260507133239 39 279 0.0 0.0 0.00 0.00 0.00 83 1013.0
20260507132736 39 281 0.0 0.0 0.00 0.00 0.00 85 1013.0
20260507132239 39 281 0.0 0.0 0.00 0.00 0.00 86 1013.0
20260507131723 38 282 0.0 2.6 0.00 0.00 0.00 88 1013.0
20260507131236 38 285 0.0 0.0 0.00 0.00 0.00 88 1013.0
20260507130739 37 285 0.0 0.0 0.00 0.00 0.00 88 1013.0
20260507130237 37 285 0.0 0.0 0.00 0.00 0.00 89 1013.0
20260507125732 36 285 0.0 0.0 0.00 0.00 0.00 89 1013.0
20260507125236 36 285 0.0 0.0 0.00 0.00 0.00 89 1012.9
20260507124740 36 285 0.0 0.0 0.00 0.00 0.00 89 1012.9
20260507124223 35 285 0.0 0.0 0.00 0.00 0.00 89 1012.9
20260507123735 35 285 0.0 0.0 0.00 0.00 0.00 89 1012.9
20260507123220 35 285 0.0 0.0 0.00 0.00 0.00 89 1012.9
20260507122740 35 285 0.0 0.0 0.00 0.00 0.00 89 1012.9
20260507122242 34 285 0.0 0.0 0.00 0.00 0.00 89 1012.9
20260507121745 34 285 0.0 0.0 0.00 0.00 0.00 89 1012.9
20260507121229 34 285 0.0 0.0 0.00 0.00 0.00 89 1012.8
20260507120742 33 285 0.0 0.0 0.00 0.00 0.00 89 1012.9
20260507120226 33 285 0.0 0.0 0.00 0.00 0.00 88 1012.9
20260507115730 33 285 0.0 0.0 0.00 0.00 0.00 88 1012.9
20260507115245 33 286 0.0 0.0 0.00 0.00 0.00 87 1012.8
20260507114721 32 286 0.0 0.0 0.00 0.00 0.00 86 1012.7
20260507114233 32 286 0.0 0.0 0.00 0.00 0.00 85 1012.6
20260507113739 32 286 0.0 0.0 0.00 0.00 0.00 85 1012.6
20260507113220 31 286 0.0 0.0 0.00 0.00 0.00 84 1012.6
20260507112743 31 286 0.0 0.0 0.00 0.00 0.00 84 1012.5
20260507112227 31 286 0.0 0.0 0.00 0.00 0.00 84 1012.6
20260507111741 31 286 0.0 0.0 0.00 0.00 0.00 83 1012.6
20260507111226 31 286 0.0 0.0 0.00 0.00 0.00 83 1012.6
20260507110735 30 286 0.0 0.0 0.00 0.00 0.00 83 1012.4
20260507110219 30 286 0.0 0.0 0.00 0.00 0.00 83 1012.4
20260507105744 30 286 0.0 0.0 0.00 0.00 0.00 83 1012.4
20260507105246 30 286 0.0 0.0 0.00 0.00 0.00 84 1012.4
20260507104728 30 286 0.0 0.0 0.00 0.00 0.00 84 1012.3
20260507104240 30 286 0.0 0.0 0.00 0.00 0.00 84 1012.3
20260507103743 30 286 0.0 0.0 0.00 0.00 0.00 84 1012.3
20260507103241 30 286 0.0 0.0 0.00 0.00 0.00 85 1012.3
20260507102736 30 286 0.0 0.0 0.00 0.00 0.00 85 1012.2
20260507102239 30 286 0.0 0.0 0.00 0.00 0.00 85 1012.3
20260507101741 30 286 0.0 0.0 0.00 0.00 0.00 85 1012.2
20260507101224 30 286 0.0 0.0 0.00 0.00 0.00 85 1012.2
20260507100737 30 286 0.0 0.0 0.00 0.00 0.00 85 1012.3
20260507100220 30 286 0.0 0.0 0.00 0.00 0.00 85 1012.4
20260507095719 30 286 0.0 0.0 0.00 0.00 0.00 85 1012.3
20260507095232 30 286 0.0 0.0 0.00 0.00 0.00 85 1012.3
20260507094736 30 286 0.0 0.0 0.00 0.00 0.00 85 1012.4
20260507094240 30 286 0.0 0.0 0.00 0.00 0.00 85 1012.4
20260507093743 30 286 0.0 0.0 0.00 0.00 0.00 85 1012.4
20260507093246 30 286 0.0 0.0 0.00 0.00 0.00 85 1012.5
20260507092739 30 286 0.0 0.0 0.00 0.00 0.00 85 1012.5
20260507092237 30 286 0.0 0.0 0.00 0.00 0.00 85 1012.6
20260507091719 30 286 0.0 0.0 0.00 0.00 0.00 84 1012.6
20260507091232 30 286 0.0 0.0 0.00 0.00 0.00 85 1012.7
20260507090736 30 286 0.0 0.0 0.00 0.00 0.00 85 1012.7
20260507090221 30 286 0.0 0.0 0.00 0.00 0.00 85 1012.7
20260507085725 30 286 0.0 0.0 0.00 0.00 0.00 85 1012.7
20260507085237 30 286 0.0 0.0 0.00 0.00 0.00 85 1012.7
20260507084736 30 286 0.0 0.0 0.00 0.00 0.00 86 1012.7
20260507084240 30 286 0.0 0.0 0.00 0.00 0.00 86 1012.8
20260507083743 30 286 0.0 0.0 0.00 0.00 0.00 85 1012.7
20260507083226 30 286 0.0 0.0 0.00 0.00 0.00 85 1012.7
20260507082728 30 286 0.0 0.0 0.00 0.00 0.00 84 1012.7
20260507082246 30 286 0.0 0.0 0.00 0.00 0.00 85 1012.7
20260507081729 30 286 0.0 0.0 0.00 0.00 0.00 84 1012.7
20260507081241 30 286 0.0 0.0 0.00 0.00 0.00 84 1012.8
20260507080740 30 286 0.0 0.0 0.00 0.00 0.00 84 1012.7
20260507080244 29 286 0.0 0.0 0.00 0.00 0.00 85 1012.8
20260507075738 29 286 0.0 0.0 0.00 0.00 0.00 85 1012.8
20260507075223 29 286 0.0 0.0 0.00 0.00 0.00 85 1012.8
20260507074737 29 286 0.0 0.0 0.00 0.00 0.00 85 1012.9
20260507074241 29 286 0.0 0.0 0.00 0.00 0.00 85 1012.9
20260507073725 29 286 0.0 0.0 0.00 0.00 0.00 86 1012.9
20260507073218 29 286 0.0 0.0 0.00 0.00 0.00 86 1013.0
20260507072740 29 286 0.0 0.0 0.00 0.00 0.00 87 1013.0
20260507072242 29 286 0.0 0.0 0.00 0.00 0.00 87 1013.0
20260507071726 29 286 0.0 0.0 0.00 0.00 0.00 87 1013.0
20260507071245 29 286 0.0 0.0 0.00 0.00 0.00 87 1013.1
20260507070730 29 286 0.0 0.0 0.00 0.00 0.00 87 1013.1
20260507070243 29 286 0.0 0.0 0.00 0.00 0.00 87 1013.1
20260507065740 29 286 0.0 0.0 0.00 0.00 0.00 87 1013.2
20260507065220 29 286 0.0 0.0 0.00 0.00 0.00 87 1013.2
20260507064733 29 286 0.0 0.0 0.00 0.00 0.00 87 1013.3
20260507064236 29 286 0.0 0.0 0.00 0.00 0.00 88 1013.4
20260507063741 29 286 0.0 0.0 0.00 0.00 0.00 88 1013.4
20260507063244 30 286 0.0 0.0 0.00 0.00 0.00 88 1013.5
20260507062739 30 286 0.0 0.0 0.00 0.00 0.00 88 1013.4
20260507062242 30 286 0.0 0.0 0.00 0.00 0.00 88 1013.4
20260507061722 30 286 0.0 0.0 0.00 0.00 0.00 88 1013.4
20260507061234 30 286 0.0 0.0 0.00 0.00 0.00 88 1013.4
20260507060737 30 286 0.0 0.0 0.00 0.00 0.00 88 1013.4
20260507060222 30 286 0.0 0.0 0.00 0.00 0.00 89 1013.4
20260507055725 30 286 0.0 0.0 0.00 0.00 0.00 89 1013.4
20260507055239 30 286 0.0 0.0 0.00 0.00 0.00 89 1013.5
20260507054724 31 286 0.0 0.0 0.00 0.00 0.00 89 1013.6
20260507054236 31 286 0.0 0.0 0.00 0.00 0.00 88 1013.6
20260507053737 31 286 0.0 0.0 0.00 0.00 0.00 89 1013.6
20260507053242 31 286 0.0 0.0 0.00 0.00 0.00 89 1013.6
20260507052718 31 286 0.0 0.0 0.00 0.00 0.00 88 1013.7
20260507052230 32 286 0.0 0.0 0.00 0.00 0.00 88 1013.7
20260507051743 32 286 0.0 0.0 0.00 0.00 0.00 88 1013.7
20260507051228 32 286 0.0 0.0 0.00 0.00 0.00 88 1013.7
20260507050738 32 286 0.0 0.0 0.00 0.00 0.00 88 1013.7
20260507050239 33 286 0.0 0.0 0.00 0.00 0.00 87 1013.7
20260507045734 33 286 0.0 0.0 0.00 0.00 0.00 87 1013.8
20260507045238 33 286 0.0 0.0 0.00 0.00 0.00 86 1013.8
20260507044721 34 286 0.0 0.0 0.00 0.00 0.00 85 1013.8
20260507044231 34 286 0.0 0.0 0.00 0.00 0.00 84 1013.9
20260507043743 35 286 0.0 0.0 0.00 0.00 0.00 82 1013.8
20260507043245 36 286 0.0 0.0 0.00 0.00 0.00 81 1013.9
20260507042737 36 286 0.0 0.0 0.00 0.00 0.00 79 1013.9
20260507042240 37 286 0.0 0.0 0.00 0.00 0.00 77 1014.0
20260507041742 37 286 0.0 0.0 0.00 0.00 0.00 77 1014.0
20260507041225 37 286 0.0 0.0 0.00 0.00 0.00 77 1014.0
20260507040737 37 286 0.0 0.0 0.00 0.00 0.00 77 1014.0
20260507040221 37 286 0.0 3.5 0.00 0.00 0.00 76 1014.0
20260507035738 37 286 0.9 3.5 0.00 0.00 0.00 76 1014.1
20260507035238 37 286 0.0 4.3 0.00 0.00 0.00 76 1014.0
20260507034742 37 286 2.6 7.0 0.00 0.00 0.00 76 1014.0
20260507034247 37 286 3.5 7.0 0.00 0.00 0.00 77 1014.0
20260507033731 37 286 2.6 6.1 0.00 0.00 0.00 80 1014.0
20260507033243 37 286 0.0 0.0 0.00 0.00 0.00 81 1013.9
20260507032739 37 286 0.0 0.0 0.00 0.00 0.00 80 1013.9
20260507032222 38 286 0.0 0.0 0.00 0.00 0.00 79 1014.0
20260507031735 38 286 0.0 0.0 0.00 0.00 0.00 77 1014.0
20260507031234 38 286 0.0 0.0 0.00 0.00 0.00 76 1013.9
20260507030738 38 286 0.0 1.7 0.00 0.00 0.00 75 1013.9
20260507030219 38 286 0.0 1.7 0.00 0.00 0.00 73 1014.0
20260507025741 39 286 0.9 2.6 0.00 0.00 0.00 73 1014.0
20260507025223 39 286 1.7 2.6 0.00 0.00 0.00 73 1014.0
20260507024736 39 286 1.7 2.6 0.00 0.00 0.00 73 1014.0
20260507024238 39 286 0.9 2.6 0.00 0.00 0.00 73 1013.9
20260507023740 39 286 0.9 2.6 0.00 0.00 0.00 73 1013.9
20260507023243 39 286 0.9 2.6 0.00 0.00 0.00 72 1013.9
20260507022736 39 286 1.7 2.6 0.00 0.00 0.00 72 1013.9
20260507022220 39 286 0.9 1.7 0.00 0.00 0.00 72 1013.9
20260507021731 39 286 0.9 2.6 0.00 0.00 0.00 71 1013.8
20260507021243 39 286 1.7 3.5 0.00 0.00 0.00 71 1013.8
20260507020746 39 286 1.7 3.5 0.00 0.00 0.00 72 1013.8
20260507020244 39 286 1.7 4.3 0.00 0.00 0.00 72 1013.8
20260507015720 39 286 3.5 4.3 0.00 0.00 0.00 72 1013.9
20260507015233 39 286 2.6 4.3 0.00 0.00 0.00 71 1013.9
20260507014735 39 286 2.6 4.3 0.00 0.00 0.00 71 1013.9
20260507014219 39 286 0.9 4.3 0.00 0.00 0.00 71 1013.8
20260507013730 39 286 2.6 5.2 0.00 0.00 0.00 71 1013.9
20260507013246 39 286 3.5 4.3 0.00 0.00 0.00 71 1013.7
20260507012721 39 286 3.5 5.2 0.00 0.00 0.00 70 1013.6
20260507012232 39 286 2.6 4.3 0.00 0.00 0.00 71 1013.5
20260507011735 40 286 2.6 5.2 0.00 0.00 0.00 70 1013.5
20260507011218 40 286 3.5 4.3 0.00 0.00 0.00 67 1013.5
20260507010730 40 286 1.7 7.0 0.00 0.00 0.00 66 1013.5
20260507010244 40 286 2.6 7.0 0.00 0.00 0.00 65 1013.5
20260507005738 40 286 3.5 7.0 0.00 0.00 0.00 65 1013.5
20260507005222 40 286 2.6 6.1 0.00 0.00 0.00 63 1013.4
20260507004730 40 286 1.7 7.0 0.00 0.00 0.00 62 1013.5
20260507004235 40 286 4.3 6.1 0.00 0.00 0.00 62 1013.4
20260507003739 40 286 3.5 6.1 0.00 0.00 0.00 62 1013.4
20260507003224 40 286 2.6 6.1 0.00 0.00 0.00 62 1013.3
20260507002726 40 286 3.5 7.0 0.00 0.00 0.00 62 1013.3
20260507002239 40 286 4.3 7.8 0.00 0.00 0.00 62 1013.3
20260507001724 40 286 6.1 7.8 0.00 0.00 0.00 62 1013.4
20260507001235 40 287 4.3 7.8 0.00 0.00 0.00 62 1013.3
20260507000737 40 287 2.6 7.8 0.00 0.00 0.00 62 1013.4
20260507000222 40 287 5.2 8.7 0.00 0.00 0.00 62 1013.4
20260506235746 40 287 4.3 8.7 0.00 0.00 0.00 61 1013.4
20260506235230 40 287 5.2 8.7 0.00 0.00 0.00 61 1013.3
20260506234743 41 286 6.1 8.7 0.00 0.00 0.00 61 1013.4
20260506234227 41 290 4.3 8.7 0.00 0.00 0.00 62 1013.3
20260506233739 41 290 5.2 8.7 0.00 0.00 0.00 61 1013.4
20260506233240 41 288 5.2 7.8 0.00 0.00 0.00 61 1013.4
20260506232737 41 287 2.6 8.7 0.00 0.00 0.00 60 1013.4